Regional Weather Roundup
Issued by NWS

Home | Current Version | Previous Version | Graphics & Text | Print | Product List | Glossary On
Versions: 1 2 3 4 5 6 7 8 9 10 11 12 13 14 15 16 17 18 19 20 21 22 23 24 25 26 27 28 29 30 31 32 33 34 35 36 37 38 39 40 41 42 43 44 45 46 47 48 49 50
000
ASUS45 KABQ 260101
RWRNM
NEW MEXICO REGIONAL WEATHER ROUNDUP
NATIONAL WEATHER SERVICE ALBUQUERQUE NM
700 PM MDT MON JUL 25 2016

NOTE: "FAIR" MEANS FEW OR NO CLOUDS BELOW 12,000 FEET AGL WITH NO
       SIGNIFICANT WEATHER OR OBSTRUCTIONS TO VISION.

      THIS PRODUCT IS RELEASED AS TWO VERSIONS.  ONE VERSION NEAR
      THE TOP OF THE HOUR CONTAINING PRELIMINARY DATA FROM ALBUQUERQUE
      AND OTHER STATIONS.  A FINAL VERSION WITH ADDITIONAL DATA IS
      ISSUED ABOUT 10 MINUTES AFTER THE HOUR.

NMZ501-503-504-510>518-260200-
NORTHWEST PLATEAU/NORTHCENTRAL MOUNTAINS

CITY           SKY/WX    TMP DP  RH WIND       PRES   REMARKS
FARMINGTON     PTSUNNY   83  48  29 NE23G32   30.15R
LOS ALAMOS     FAIR      76  46  34 NE3       30.33S
SANTA FE       FAIR      73  58  59 E9        30.25F
TAOS           FAIR      75  43  31 SE10      30.32F
ANGEL FIRE     FAIR      59  53  81 CALM      30.46S

$$
NMZ402-403-502-505>509-260200-
WESTCENTRAL MOUNTAINS/SOUTHWEST MOUNTAINS

CITY           SKY/WX    TMP DP  RH WIND       PRES   REMARKS
GALLUP         LGT RAIN  69  57  65 S8        30.30R
GRANTS         LGT RAIN  70  55  57 S6        30.29R
SILVER CITY    FAIR      83  51  32 NW14      30.12F

$$
NMZ407-409-411-412-260200-
SOUTHERN DESERTS

CITY           SKY/WX    TMP DP  RH WIND       PRES   REMARKS
LORDSBURG      FAIR      91  54  27 N14       30.01S
DEMING         FAIR      96  45  17 E7        29.99F
LAS CRUCES     FAIR      96  40  14 S10       30.03R
HOLLOMAN AFB   PTSUNNY   89  58  35 NE9       29.99R
ALAMOGORDO     FAIR      86  54  32 NE9       30.02S
T OR C         FAIR      94  46  19 VRB3      30.05S

$$
NMZ519>523-260200-
CENTRAL VALLEYS/CENTRAL HIGHLANDS

CITY           SKY/WX    TMP DP  RH WIND       PRES   REMARKS
ALBUQUERQUE    CLOUDY    86  51  29 NE9       30.17R
DOUBLE EAGLE   PTSUNNY   79  55  44 N7        30.20R
MORIARTY ARPT  FAIR      84  44  24 SE9       30.25S
CLINES CORNERS FAIR      70  54  56 E6        30.33F
BELEN          CLOUDY    82  50  32 NW20      30.15R
SOCORRO        FAIR      90  45  21 S13       30.09R

$$
NMZ524>526-539-540-260200-
SOUTHCENTRAL MOUNTAINS

CITY           SKY/WX    TMP DP  RH WIND       PRES   REMARKS
RUIDOSO        NOT AVBL

$$
NMZ527>531-260200-
NORTHEAST HIGHLANDS/NORTHEAST PLAINS

CITY           SKY/WX    TMP DP  RH WIND       PRES   REMARKS
LAS VEGAS      FAIR      71  49  45 N14       30.31F
RATON          FAIR      67  53  61 NE9       30.28F
CLAYTON        CLOUDY    71  60  68 W23G32    30.20R THUNDER

$$
NMZ532>537-260200-
EASTCENTRAL PLAINS

CITY           SKY/WX    TMP DP  RH WIND       PRES   REMARKS
TUCUMCARI      PTSUNNY   78  62  57 SE3       30.07R
CANNON AFB     DRIZZLE   75  63  66 E12       30.14R
CLOVIS AIRPORT FAIR      73  57  56 E15G21    30.12F THUNDER

$$
NMZ028-029-538-260200-
SOUTHEAST PLAINS

CITY           SKY/WX    TMP DP  RH WIND       PRES   REMARKS
ROSWELL        FAIR      97  51  21 SE14      30.00S
ARTESIA        FAIR      93  54  26 S6        29.99S
CARLSBAD       PTSUNNY   97  52  21 E7        29.95S
HOBBS          FAIR      93  50  22 E9G17     30.03R


$$



USA.gov is the U.S. government's official web portal to all federal, state and local government web resources and services.